When you browse on this site, cookies collect data to enhance your experience and personalize the content and advertising you see.
Visit our Privacy Policy to learn more. By continuing to use the site, you agree to this use of cookies and data.
  • In Romania
  • List of Countries
  • For 7 days
  • Water Temperature
  • Weather Map
  • Weather Widgets
  • user-avatar
    Login

    Hourly Weather Chitré

    Today, 19 September, Thursday

    Time Temperature Precipitation Wind Pressure Humidity
    00:00 +27°C° 0 mm 2 mps 756 mmHg 88%
    01:00 +26°C° 0 mm 2 mps 756 mmHg 88%
    02:00 +26°C° 0 mm 2 mps 755 mmHg 89%
    03:00 +26°C° 0 mm 2 mps 755 mmHg 90%
    04:00 +26°C° 0 mm 2 mps 754 mmHg 91%
    05:00 +26°C° 0 mm 2 mps 755 mmHg 90%
    06:00 +26°C° 0 mm 2 mps 755 mmHg 90%
    07:00 +26°C° 0 mm 2 mps 755 mmHg 89%
    08:00 +28°C° 0 mm 2 mps 755 mmHg 84%
    09:00 +29°C° 0 mm 2 mps 756 mmHg 78%
    10:00 +31°C° 0 mm 2 mps 756 mmHg 72%
    11:00 +31°C° 1.6 mm 2 mps 755 mmHg 72%
    12:00 +31°C° 1.6 mm 2 mps 755 mmHg 71%
    13:00 +33°C° 1.6 mm 3 mps 754 mmHg 70%
    14:00 +31°C° 2.7 mm 3 mps 754 mmHg 73%
    15:00 +31°C° 2.7 mm 3 mps 754 mmHg 76%
    16:00 +30°C° 2.7 mm 3 mps 753 mmHg 79%
    17:00 +29°C° 1.9 mm 2 mps 753 mmHg 83%
    18:00 +28°C° 1.9 mm 2 mps 754 mmHg 88%
    19:00 +27°C° 1.9 mm 2 mps 754 mmHg 92%
    20:00 +27°C° 0 mm 2 mps 754 mmHg 91%
    21:00 +27°C° 0 mm 2 mps 755 mmHg 91%
    22:00 +26°C° 0 mm 2 mps 755 mmHg 91%
    23:00 +26°C° 0 mm 3 mps 755 mmHg 91%

    Tomorrow, 20 September, Friday

    Time Temperature Precipitation Wind Pressure Humidity
    00:00 +26°C° 0 mm 3 mps 755 mmHg 91%
    01:00 +26°C° 0 mm 3 mps 755 mmHg 91%
    02:00 +26°C° 0 mm 3 mps 754 mmHg 91%
    03:00 +26°C° 0 mm 3 mps 754 mmHg 92%
    04:00 +26°C° 0 mm 3 mps 754 mmHg 92%
    05:00 +26°C° 0.3 mm 3 mps 754 mmHg 92%
    06:00 +26°C° 0.3 mm 3 mps 755 mmHg 92%
    07:00 +26°C° 0.3 mm 3 mps 755 mmHg 91%
    08:00 +28°C° 1 mm 3 mps 756 mmHg 87%
    09:00 +29°C° 1 mm 3 mps 756 mmHg 83%
    10:00 +30°C° 1 mm 3 mps 756 mmHg 79%
    11:00 +29°C° 4 mm 3 mps 756 mmHg 84%
    12:00 +28°C° 4 mm 3 mps 756 mmHg 89%
    13:00 +26°C° 4 mm 3 mps 755 mmHg 94%
    14:00 +26°C° 1.8 mm 3 mps 755 mmHg 93%
    15:00 +27°C° 1.8 mm 3 mps 755 mmHg 93%
    16:00 +27°C° 1.8 mm 4 mps 754 mmHg 92%
    17:00 +26°C° 0.4 mm 3 mps 754 mmHg 92%
    18:00 +26°C° 0.4 mm 3 mps 755 mmHg 92%
    19:00 +26°C° 0.4 mm 3 mps 755 mmHg 92%
    20:00 +26°C° 0.3 mm 3 mps 756 mmHg 92%
    21:00 +26°C° 0.3 mm 3 mps 756 mmHg 93%
    22:00 +26°C° 0.3 mm 3 mps 756 mmHg 93%
    23:00 +26°C° 0 mm 3 mps 756 mmHg 93%

    Day after tomorrow, 21 September, Saturday

    Time Temperature Precipitation Wind Pressure Humidity
    00:00 +26°C° 0 mm 2 mps 756 mmHg 93%
    01:00 +26°C° 0 mm 2 mps 756 mmHg 93%
    02:00 +26°C° 0 mm 2 mps 756 mmHg 93%
    03:00 +26°C° 0 mm 2 mps 755 mmHg 93%
    04:00 +26°C° 0 mm 2 mps 755 mmHg 93%
    05:00 +26°C° 0 mm 2 mps 756 mmHg 93%
    06:00 +26°C° 0 mm 2 mps 756 mmHg 92%
    07:00 +26°C° 0 mm 3 mps 756 mmHg 92%
    08:00 +27°C° 0.8 mm 3 mps 756 mmHg 88%
    09:00 +29°C° 0.8 mm 4 mps 757 mmHg 84%
    10:00 +30°C° 0.8 mm 4 mps 757 mmHg 80%
    11:00 +30°C° 2.1 mm 4 mps 756 mmHg 81%
    12:00 +30°C° 2.1 mm 4 mps 756 mmHg 81%
    13:00 +30°C° 2.1 mm 4 mps 756 mmHg 82%
    14:00 +29°C° 2.4 mm 4 mps 755 mmHg 85%
    15:00 +28°C° 2.4 mm 3 mps 755 mmHg 88%
    16:00 +27°C° 2.4 mm 3 mps 754 mmHg 92%
    17:00 +27°C° 1.1 mm 3 mps 755 mmHg 92%
    18:00 +26°C° 1.1 mm 3 mps 755 mmHg 93%
    19:00 +26°C° 1.1 mm 3 mps 755 mmHg 94%
    20:00 +26°C° 0.2 mm 3 mps 756 mmHg 94%
    21:00 +26°C° 0.2 mm 3 mps 756 mmHg 94%
    22:00 +26°C° 0.2 mm 3 mps 757 mmHg 94%
    23:00 +26°C° 0.2 mm 3 mps 756 mmHg 94%

    22 September, Sunday

    Time Temperature Precipitation Wind Pressure Humidity
    00:00 +26°C° 0.2 mm 3 mps 756 mmHg 93%
    01:00 +26°C° 0.2 mm 3 mps 756 mmHg 93%
    02:00 +26°C° 0.1 mm 2 mps 755 mmHg 93%
    03:00 +26°C° 0.1 mm 2 mps 755 mmHg 93%
    04:00 +26°C° 0.1 mm 2 mps 755 mmHg 93%
    05:00 +26°C° 0 mm 2 mps 755 mmHg 93%
    06:00 +26°C° 0 mm 2 mps 756 mmHg 93%
    07:00 +26°C° 0 mm 2 mps 756 mmHg 93%
    08:00 +27°C° 0.6 mm 2 mps 756 mmHg 88%
    09:00 +29°C° 0.6 mm 2 mps 757 mmHg 83%
    10:00 +30°C° 0.6 mm 2 mps 757 mmHg 78%
    11:00 +30°C° 2 mm 2 mps 756 mmHg 80%
    12:00 +29°C° 2 mm 3 mps 756 mmHg 81%
    13:00 +29°C° 2 mm 3 mps 756 mmHg 82%
    14:00 +28°C° 1.9 mm 3 mps 755 mmHg 85%
    15:00 +28°C° 1.9 mm 3 mps 755 mmHg 87%
    16:00 +27°C° 1.9 mm 3 mps 754 mmHg 90%
    17:00 +27°C° 1.5 mm 3 mps 755 mmHg 90%
    18:00 +26°C° 1.5 mm 3 mps 755 mmHg 91%
    19:00 +26°C° 1.5 mm 2 mps 756 mmHg 91%
    20:00 +26°C° 0.8 mm 3 mps 756 mmHg 92%
    21:00 +26°C° 0.8 mm 3 mps 757 mmHg 92%
    22:00 +26°C° 0.8 mm 3 mps 757 mmHg 93%
    23:00 +26°C° 0.1 mm 4 mps 757 mmHg 93%

    23 September, Monday

    Time Temperature Precipitation Wind Pressure Humidity
    00:00 +26°C° 0.1 mm 4 mps 756 mmHg 93%
    01:00 +26°C° 0.1 mm 5 mps 756 mmHg 93%
    02:00 +26°C° 0 mm 4 mps 756 mmHg 93%
    03:00 +26°C° 0 mm 3 mps 755 mmHg 93%
    04:00 +26°C° 0 mm 2 mps 755 mmHg 93%
    05:00 +26°C° 0 mm 1 mps 756 mmHg 92%
    06:00 +26°C° 0 mm 1 mps 756 mmHg 91%
    07:00 +26°C° 0 mm 1 mps 757 mmHg 90%
    08:00 +27°C° 0.3 mm 1 mps 757 mmHg 86%
    09:00 +28°C° 0.3 mm 1 mps 757 mmHg 83%
    10:00 +29°C° 0.3 mm 1 mps 758 mmHg 79%
    11:00 +30°C° 2.4 mm 1 mps 757 mmHg 79%
    12:00 +30°C° 2.4 mm 2 mps 757 mmHg 79%
    13:00 +30°C° 2.4 mm 2 mps 756 mmHg 78%
    14:00 +30°C° 2.3 mm 2 mps 756 mmHg 81%
    15:00 +29°C° 2.3 mm 1 mps 755 mmHg 84%
    16:00 +28°C° 2.3 mm 1 mps 755 mmHg 86%
    17:00 +28°C° 1.5 mm 2 mps 755 mmHg 88%
    18:00 +27°C° 1.5 mm 2 mps 755 mmHg 89%
    19:00 +27°C° 1.5 mm 3 mps 756 mmHg 91%
    20:00 +26°C° 0.1 mm 3 mps 756 mmHg 92%
    21:00 +26°C° 0.1 mm 3 mps 756 mmHg 92%
    22:00 +26°C° 0.1 mm 3 mps 757 mmHg 93%
    23:00 +26°C° 0 mm 2 mps 757 mmHg 92%

    24 September, Tuesday

    Time Temperature Precipitation Wind Pressure Humidity
    00:00 +26°C° 0 mm 2 mps 756 mmHg 92%
    01:00 +26°C° 0 mm 1 mps 756 mmHg 92%
    02:00 +26°C° 0 mm 1 mps 756 mmHg 92%
    03:00 +26°C° 0 mm 1 mps 756 mmHg 92%
    04:00 +26°C° 0 mm 1 mps 755 mmHg 92%
    05:00 +26°C° 0 mm 1 mps 756 mmHg 92%
    06:00 +26°C° 0 mm 1 mps 756 mmHg 91%
    07:00 +25°C° 0 mm 0 mps 757 mmHg 91%
    08:00 +26°C° 0.1 mm 0 mps 757 mmHg 86%
    09:00 +29°C° 0.1 mm 1 mps 757 mmHg 81%
    10:00 +30°C° 0.1 mm 1 mps 758 mmHg 76%
    11:00 +31°C° 1.1 mm 1 mps 757 mmHg 75%
    12:00 +31°C° 1.1 mm 1 mps 756 mmHg 75%
    13:00 +31°C° 1.1 mm 2 mps 756 mmHg 74%
    14:00 +30°C° 2.6 mm 2 mps 755 mmHg 77%
    15:00 +30°C° 2.6 mm 1 mps 755 mmHg 81%
    16:00 +29°C° 2.6 mm 1 mps 754 mmHg 85%
    17:00 +28°C° 0.4 mm 2 mps 755 mmHg 86%
    18:00 +28°C° 0.4 mm 2 mps 755 mmHg 88%
    19:00 +27°C° 0.4 mm 2 mps 755 mmHg 89%
    20:00 +27°C° 0 mm 2 mps 756 mmHg 89%
    21:00 +27°C° 0 mm 2 mps 756 mmHg 90%
    22:00 +27°C° 0 mm 2 mps 756 mmHg 90%
    23:00 +27°C° 0 mm 2 mps 756 mmHg 90%
    Show more